Date,TemperatureHighF,TemperatureAvgF,TemperatureLowF,DewpointHighF,DewpointAvgF,DewpointLowF,HumidityHigh,HumidityAvg,HumidityLow,PressureMaxIn,PressureMinIn,WindSpeedMaxMPH,WindSpeedAvgMPH,GustSpeedMaxMPH,PrecipitationSumIn
2013-1-1,33,27,14,28,18,6,85,69,49,29.80,29.57,18,8,36,0.00
2013-1-2,21,14,8,10,6,3,82,70,60,29.98,29.79,13,3,24,0.00
2013-1-3,22,15,9,13,8,4,86,75,57,30.05,29.93,17,2,23,0.00
2013-1-4,36,29,18,29,23,9,92,77,63,29.93,29.69,11,6,25,0.00
2013-1-5,35,31,19,29,21,11,78,66,52,30.26,29.69,23,10,37,0.00
2013-1-6,34,27,17,33,24,11,97,88,70,30.24,29.90,9,2,19,0.05
2013-1-7,28,20,8,26,16,6,94,84,63,30.41,29.95,17,6,23,0.01
2013-1-8,41,36,28,36,30,24,85,78,67,30.35,30.16,15,5,32,0.57
2013-1-9,44,35,23,40,32,22,99,87,76,30.40,29.84,10,2,27,0.02
2013-1-10,42,39,33,33,29,24,83,69,56,30.48,29.85,31,16,48,0.03
2013-1-11,35,31,28,28,23,20,83,72,60,30.52,30.27,17,6,23,0.01
2013-1-12,44,40,34,41,35,28,93,82,75,30.27,30.10,6,1,11,0.00
2013-1-13,47,44,41,47,43,40,99,98,93,30.13,29.94,12,3,22,0.01
2013-1-14,49,45,37,49,43,30,99,92,66,30.17,29.85,25,9,31,0.01
2013-1-15,38,34,27,30,26,21,93,73,60,30.30,30.17,13,3,18,0.00
2013-1-16,38,34,30,37,30,19,97,86,58,30.27,29.74,6,1,14,0.00
2013-1-17,41,32,16,39,25,0,98,78,49,30.11,29.73,22,8,30,0.00
2013-1-18,21,14,9,6,2,-2,73,57,46,30.38,30.08,22,9,28,0.00
2013-1-19,40,32,21,35,27,4,98,83,48,30.37,29.90,16,5,32,0.00
2013-1-20,48,42,27,42,34,18,98,75,48,29.90,29.43,18,6,33,0.00
2013-1-21,27,21,16,19,8,1,91,58,40,30.03,29.78,17,4,36,0.00
2013-1-22,20,15,11,18,10,-2,93,80,55,29.96,29.73,20,6,30,0.00
2013-1-23,11,5,2,1,-4,-7,72,64,55,30.03,29.96,17,4,27,0.00
2013-1-24,15,7,0,3,-2,-6,80,68,48,30.05,29.87,12,3,25,0.00
2013-1-25,21,14,6,9,5,-1,79,67,53,30.15,30.04,10,3,16,0.00
2013-1-26,21,15,10,7,4,1,76,60,45,30.07,29.93,25,12,38,0.00
2013-1-27,24,18,13,13,8,5,79,67,54,30.37,30.06,32,17,41,0.00
2013-1-28,25,21,16,23,11,3,93,65,42,30.39,30.06,18,6,27,0.00
2013-1-29,37,29,21,33,25,19,93,86,75,30.22,30.05,8,2,12,0.02
2013-1-30,52,45,37,51,44,32,99,95,83,30.17,29.47,20,11,35,0.07
2013-1-31,54,43,34,53,36,20,99,76,55,29.46,28.85,25,12,45,0.20
2013-2-1,33,26,18,20,12,6,67,55,45,29.98,29.39,23,13,34,0.07
2013-2-2,27,20,15,22,10,3,93,65,46,30.18,29.97,18,5,32,0.00
2013-2-3,28,25,22,24,21,-100,94,87,79,30.05,29.63,16,5,22,0.00
2013-2-4,29,23,18,19,13,0,89,66,43,29.82,29.57,20,8,37,0.01
2013-2-5,25,18,9,12,2,-1,74,52,35,30.02,29.82,18,6,30,0.01
2013-2-6,36,28,21,31,20,1,95,75,40,30.22,29.91,17,7,31,0.03
2013-2-7,19,13,10,7,0,-6,71,55,44,30.58,30.22,19,7,27,0.01
2013-2-8,23,17,9,21,13,-5,94,84,53,30.59,29.85,18,4,38,0.00
2013-2-9,20,16,13,16,13,-100,94,90,81,30.00,29.57,44,20,54,0.00
2013-2-10,35,24,15,19,14,10,92,68,44,30.33,30.00,28,4,40,0.00
2013-2-11,44,32,13,43,28,11,98,88,63,30.34,29.55,12,3,23,0.79
2013-2-12,43,37,33,38,34,30,99,88,72,29.73,29.48,10,3,18,0.05
2013-2-13,43,36,28,32,29,27,96,78,57,29.79,29.70,7,3,14,0.00
2013-2-14,39,32,23,30,24,20,95,73,52,29.99,29.68,14,5,18,0.00
2013-2-15,46,38,22,40,34,21,96,88,77,30.00,29.92,11,3,19,0.00
2013-2-16,40,33,28,38,32,27,98,95,86,29.92,29.72,9,3,13,0.00
2013-2-17,28,24,22,27,21,16,96,89,73,29.73,28.99,41,20,56,0.01
2013-2-18,30,24,19,16,11,8,81,57,46,29.94,29.29,22,15,39,0.01
2013-2-19,43,32,21,41,22,7,95,65,32,30.07,29.67,12,4,22,0.09
2013-2-20,44,37,30,43,32,20,98,81,65,29.67,29.38,14,8,34,0.51
2013-2-21,35,29,26,30,21,16,89,74,64,30.04,29.58,28,11,38,0.01
2013-2-22,39,32,28,28,24,22,80,72,56,30.35,30.04,22,8,31,0.00
2013-2-23,34,33,29,29,27,23,88,80,74,30.34,30.04,9,5,18,0.00
2013-2-24,34,31,28,32,30,27,98,95,85,30.05,29.75,9,2,19,0.06
2013-2-25,44,28,19,30,23,18,97,82,50,30.22,29.85,16,4,20,0.05
2013-2-26,43,31,19,34,27,18,97,87,59,30.35,30.22,3,0,7,0.01
2013-2-27,40,35,28,34,31,27,98,85,67,30.28,29.70,15,6,33,0.03
2013-2-28,44,38,33,43,38,32,99,98,95,29.71,29.49,14,5,32,0.42
2013-3-1,34,32,31,34,32,30,99,97,94,29.61,29.47,14,8,20,0.01
2013-3-2,37,34,32,35,32,30,98,94,88,29.60,29.55,17,8,21,0.02
2013-3-3,44,36,33,39,35,32,99,94,81,29.57,29.46,6,0,15,0.01
2013-3-4,36,34,32,34,32,30,98,93,83,29.61,29.42,16,7,23,0.00
2013-3-5,45,37,33,38,35,32,98,92,73,30.10,29.61,5,3,15,0.00
2013-3-6,36,34,33,34,32,28,97,90,76,30.25,30.10,11,6,25,0.04
2013-3-7,37,35,33,30,28,27,83,77,72,30.20,30.03,15,8,33,0.01
2013-3-8,45,37,31,29,27,25,86,69,50,30.17,30.01,16,11,32,0.01
2013-3-9,42,34,29,30,27,24,87,75,57,30.37,30.16,12,5,24,0.00
2013-3-10,36,32,30,31,28,25,90,83,73,30.42,30.30,7,1,13,0.00
2013-3-11,42,39,35,40,36,32,95,89,83,30.32,30.18,12,5,20,0.00
2013-3-12,49,45,41,45,43,39,98,92,84,30.19,29.83,19,9,31,0.00
2013-3-13,49,43,36,48,42,34,99,96,83,29.81,29.62,14,3,22,0.08
2013-3-14,42,35,28,33,29,22,98,80,58,29.68,29.59,7,2,13,0.02
2013-3-15,33,27,21,23,18,12,89,69,42,29.73,29.59,26,6,33,0.00
2013-3-16,34,29,25,25,19,15,86,66,47,29.86,29.59,19,5,25,0.00
2013-3-17,31,26,21,16,11,3,72,54,36,30.27,29.86,32,11,41,0.00
2013-3-18,33,25,18,19,9,3,71,50,31,30.42,30.27,24,10,31,0.00
2013-3-19,33,28,27,27,24,15,97,85,47,30.30,29.58,16,7,33,0.00
2013-3-20,35,29,21,30,25,20,98,87,72,29.70,29.53,27,10,36,0.05
2013-3-21,37,33,28,30,25,21,95,73,51,29.76,29.58,12,5,29,0.02
2013-3-22,40,33,26,30,23,19,93,68,45,29.60,29.54,12,7,19,0.00
2013-3-23,42,34,27,29,24,20,77,67,52,29.60,29.42,12,4,25,0.00
2013-3-24,44,38,30,31,29,25,86,69,56,29.75,29.56,21,8,27,0.01
2013-3-25,42,35,24,34,30,23,97,82,66,29.75,29.56,8,3,17,0.01
2013-3-26,47,38,31,33,29,25,86,70,53,29.67,29.49,21,8,27,0.00
2013-3-27,40,38,36,38,35,32,96,90,79,29.81,29.66,17,8,23,0.05
2013-3-28,45,39,34,39,35,31,95,86,72,29.93,29.81,12,4,21,0.03
2013-3-29,55,42,32,42,36,32,99,82,58,29.97,29.91,6,0,12,0.00
2013-3-30,50,42,32,37,34,28,92,75,42,30.05,29.96,9,4,15,0.00
2013-3-31,50,39,25,39,28,-100,97,71,29,30.11,29.89,11,4,22,0.00
2013-4-1,46,42,37,44,40,30,98,92,74,29.90,29.46,11,6,24,1.10
2013-4-2,38,33,30,31,19,15,81,57,41,29.79,29.62,14,7,27,0.02
2013-4-3,43,35,29,24,19,14,72,53,40,29.97,29.76,18,6,32,0.00
2013-4-4,47,38,31,35,24,16,83,58,33,30.16,29.96,16,4,30,0.00
2013-4-5,47,42,39,39,36,30,90,80,63,29.96,29.64,23,5,32,0.00
2013-4-6,41,35,30,31,18,9,75,52,31,30.33,29.74,24,7,42,0.01
2013-4-7,44,37,24,39,27,13,90,68,47,30.34,29.97,18,9,33,0.01
2013-4-8,56,47,40,43,39,35,96,74,50,30.14,29.88,16,7,37,0.01
2013-4-9,45,41,39,41,39,36,98,91,74,30.14,29.88,10,4,18,0.78
2013-4-10,50,42,37,45,41,36,99,96,84,29.99,29.88,8,4,15,0.10
2013-4-11,50,43,38,43,30,19,98,62,34,30.16,29.85,14,6,24,0.02
2013-4-12,38,35,34,33,26,18,97,73,47,30.25,29.89,10,4,28,2.20
2013-4-13,42,37,34,38,35,33,98,93,83,29.91,29.74,11,4,23,1.52
2013-4-14,50,41,34,44,39,33,98,91,73,30.14,29.90,7,2,12,0.01
2013-4-15,47,40,34,41,37,34,98,90,75,30.43,30.14,10,4,15,0.01
2013-4-16,48,42,37,44,40,36,98,92,79,30.43,29.96,21,10,37,0.08
2013-4-17,57,49,44,46,37,30,97,65,40,30.34,29.94,14,8,25,0.09
2013-4-18,48,42,29,39,32,25,90,68,45,30.48,30.19,12,5,25,0.01
2013-4-19,58,51,44,56,49,38,98,93,79,30.19,29.70,19,13,37,0.00
2013-4-20,54,48,43,54,46,34,99,92,68,30.10,29.59,21,9,42,0.19
2013-4-21,52,42,30,35,29,25,92,60,39,30.68,30.09,22,7,31,0.01
2013-4-22,46,40,28,39,30,22,89,69,50,30.81,30.67,12,4,19,0.00
2013-4-23,44,40,37,41,36,29,98,86,69,30.67,30.19,11,4,18,0.21
2013-4-24,52,46,42,52,45,41,99,98,96,30.19,29.75,12,3,27,1.41
2013-4-25,63,49,41,52,44,36,99,85,50,30.27,29.83,15,6,28,0.07
2013-4-26,56,45,34,40,36,32,96,71,46,30.44,30.26,4,1,12,0.01
2013-4-27,53,43,31,39,35,29,99,78,43,30.42,30.30,4,1,9,0.00
2013-4-28,60,46,33,46,38,-100,99,78,47,30.35,30.26,3,0,6,0.00
2013-4-29,57,47,35,47,42,34,99,85,65,30.29,30.24,6,2,12,0.00
2013-4-30,63,49,36,48,42,36,99,76,55,30.37,30.26,6,2,15,0.01
2013-5-1,59,50,40,45,39,32,90,69,40,30.47,30.36,10,4,17,0.01
2013-5-2,54,47,42,45,41,37,96,81,55,30.52,30.41,15,6,28,0.00
2013-5-3,59,48,40,47,41,37,93,79,61,30.54,30.38,9,3,14,0.00
2013-5-4,52,44,33,43,38,32,97,80,58,30.40,30.32,12,3,21,0.00
2013-5-5,54,45,35,44,39,34,98,81,59,30.34,30.26,12,4,22,0.00
2013-5-6,54,45,35,47,42,34,98,89,69,30.29,30.18,8,3,16,0.00
2013-5-7,59,49,41,53,46,40,99,92,73,30.19,30.11,12,3,20,0.00
2013-5-8,71,58,48,61,54,47,99,89,69,30.27,30.16,9,5,19,0.00
2013-5-12,55,52,49,55,52,48,99,99,97,29.67,29.53,12,4,18,0.30
2013-5-13,52,48,44,48,41,37,97,77,59,29.97,29.66,13,7,29,0.01
2013-5-14,59,49,40,42,39,36,96,70,44,29.98,29.91,8,1,15,0.00
2013-5-15,58,47,34,47,39,32,99,77,38,29.99,29.69,13,5,27,0.19
2013-5-16,65,50,47,55,29,-100,98,86,60,29.75,29.55,11,2,20,0.19
2013-5-17,60,53,40,47,39,-100,93,69,51,30.17,29.75,21,7,27,0.00
2013-5-18,59,47,37,47,42,36,99,83,60,30.35,30.17,5,1,11,0.00
2013-5-19,59,48,37,49,45,36,99,89,70,30.39,30.24,4,1,11,0.00
2013-5-20,64,53,47,58,51,46,99,94,76,30.25,29.92,7,2,17,1.12
2013-5-21,47,46,46,47,46,45,99,99,98,30.07,29.98,9,3,19,0.24
2013-5-22,50,48,46,49,47,46,99,99,97,30.08,29.92,13,4,23,0.56
2013-5-23,60,53,46,60,53,46,100,99,96,29.96,29.83,18,5,36,0.04
2013-5-24,61,56,50,61,56,50,100,99,99,29.84,29.67,17,9,37,0.86
2013-5-25,50,49,47,50,49,47,100,99,99,29.81,29.67,11,6,23,0.30
2013-5-26,51,47,45,49,46,42,99,96,84,29.92,29.60,9,5,20,0.23
2013-5-27,64,53,44,44,42,36,93,69,37,30.14,29.92,12,5,23,0.02
2013-5-28,67,56,42,48,41,38,90,60,36,30.23,30.14,12,4,20,0.01
2013-5-29,56,52,48,55,51,45,99,95,68,30.22,29.99,9,4,19,0.09
2013-5-30,71,61,49,66,57,49,100,89,74,30.01,29.95,9,4,17,0.02
2013-5-31,75,65,53,66,60,52,99,84,66,30.02,29.87,10,4,19,0.00
2013-6-1,74,66,58,66,60,56,95,83,71,29.90,29.80,11,6,24,0.00
2013-6-2,70,61,57,63,57,-100,96,89,78,29.80,29.69,18,10,38,0.00
2013-6-3,64,58,54,61,57,53,99,97,90,29.81,29.70,14,8,22,0.05
2013-6-4,64,58,50,55,50,44,99,75,53,29.99,29.73,9,3,16,0.01
2013-6-5,65,57,50,51,46,42,89,70,49,30.14,29.99,13,6,20,0.00
2013-6-6,66,58,45,54,48,43,97,73,43,30.20,30.13,8,3,13,0.00
2013-6-7,58,54,49,52,49,44,98,84,60,30.16,29.98,9,3,16,0.44
2013-6-8,64,55,50,58,54,49,99,96,81,29.98,29.59,16,4,24,2.88
2013-6-9,65,58,54,58,55,53,96,89,78,30.11,29.93,9,3,16,0.04
2013-6-10,67,57,48,60,53,48,100,88,68,30.20,30.05,3,0,8,0.00
2013-6-11,54,52,49,53,51,49,99,97,93,30.05,29.49,14,4,25,1.14
2013-6-12,56,53,50,56,53,50,99,98,92,29.69,29.45,15,6,22,0.25
2013-6-13,68,57,51,56,52,50,97,84,60,29.78,29.69,16,4,22,0.02
2013-6-14,63,55,51,54,51,46,96,86,67,29.73,29.66,6,2,12,0.01
2013-6-15,72,59,50,53,50,45,97,73,39,29.86,29.69,15,5,23,0.01
2013-6-16,74,61,55,56,53,49,90,76,44,29.88,29.70,10,5,18,0.00
2013-6-17,70,62,55,61,58,54,98,88,72,29.83,29.70,13,5,25,0.09
2013-6-18,68,60,53,59,55,53,100,84,58,29.93,29.80,8,2,14,0.08
2013-6-19,71,60,48,55,51,45,99,74,41,30.09,29.89,7,3,15,0.01
2013-6-20,71,60,46,59,51,45,98,75,50,30.22,30.09,9,2,16,0.01
2013-6-22,68,64,62,62,60,57,89,86,80,30.17,30.08,9,5,14,0.00
2013-6-23,70,63,59,64,60,57,96,90,80,30.13,29.93,12,4,17,0.02
2013-6-24,80,69,62,71,65,61,98,88,70,29.94,29.78,3,1,10,0.02
2013-6-25,79,68,61,68,64,59,98,87,69,29.81,29.67,9,3,16,0.15
2013-6-26,74,60,55,70,59,54,99,96,85,29.85,29.65,12,5,25,0.22
2013-6-27,57,54,51,56,53,50,99,96,92,29.87,29.83,11,4,19,0.09
2013-6-28,63,57,53,63,57,53,100,99,99,29.85,29.57,17,8,30,2.50
2013-6-29,67,63,60,66,63,60,100,99,95,29.69,29.56,15,10,28,0.06
2013-6-30,67,62,59,66,62,59,100,99,95,29.93,29.69,15,8,24,0.01
2013-7-1,69,64,59,68,63,58,100,98,94,30.09,29.92,8,4,16,0.07
2013-7-2,65,58,54,65,58,54,100,99,98,30.20,30.07,14,3,23,0.56
2013-7-3,69,61,55,65,58,-100,99,94,83,30.18,30.09,11,2,18,0.01
2013-7-4,80,70,59,72,67,58,99,90,74,30.13,30.02,8,3,16,0.01
2013-7-5,79,71,64,71,67,63,98,88,75,30.06,29.96,9,4,17,0.00
2013-7-6,82,72,67,73,68,66,97,88,69,29.98,29.86,7,3,15,0.00
2013-7-7,82,73,66,68,66,62,89,78,61,29.91,29.85,8,4,18,0.00
2013-7-8,74,66,59,68,61,-100,96,87,77,30.04,29.86,8,3,19,0.34
2013-7-9,64,60,58,60,58,55,98,93,74,30.10,30.03,8,3,15,0.28
2013-7-10,68,60,57,68,58,-100,99,96,89,30.07,29.76,12,4,22,0.01
2013-7-11,76,67,63,71,66,62,100,96,79,29.92,29.72,12,4,22,0.01
2013-7-12,79,68,58,67,60,56,96,77,54,30.18,29.92,9,3,14,0.00
2013-7-13,76,66,56,64,60,54,96,80,62,30.29,30.18,8,3,14,0.00
2013-7-14,79,69,61,69,64,60,99,85,66,30.25,30.14,7,4,13,0.00
2013-7-15,84,73,64,72,67,63,97,81,61,30.14,30.01,10,4,21,0.00
2013-7-16,89,74,66,70,66,59,92,75,52,30.13,30.02,10,2,17,0.00
2013-7-17,74,69,64,68,63,57,97,81,69,30.15,29.93,13,7,26,0.05
2013-7-18,82,71,63,71,65,57,99,83,49,29.97,29.88,11,4,18,0.06
2013-7-19,79,70,65,72,68,63,98,91,77,29.96,29.61,15,8,30,0.02
2013-7-20,75,71,66,70,66,-100,97,85,70,29.72,29.56,10,6,21,0.02
2013-7-21,75,66,55,63,58,54,97,78,56,30.00,29.72,12,1,17,0.00
2013-7-22,74,64,55,64,58,52,99,84,52,30.03,29.92,5,1,8,0.00
2013-7-23,70,62,59,69,62,58,99,98,94,29.92,29.50,11,3,18,0.45
2013-7-24,76,66,60,70,64,53,99,93,74,29.93,29.53,15,3,21,0.07
2013-7-25,72,62,56,59,55,51,94,78,60,30.10,29.92,14,5,19,0.03
2013-7-26,67,63,59,67,62,58,100,99,95,30.05,29.81,2,0,7,2.43
2013-7-27,74,65,59,68,63,59,100,91,76,30.03,29.82,8,2,13,0.09
2013-7-28,66,63,60,65,62,59,99,97,91,30.04,29.98,8,3,14,0.53
2013-7-29,71,63,58,65,62,57,99,94,80,30.05,29.96,6,3,13,0.01
2013-7-30,75,64,59,66,62,58,99,92,73,30.02,29.97,9,4,18,0.04
2013-7-31,76,65,56,63,59,55,98,83,63,30.07,30.01,11,3,17,0.01
2013-8-1,75,66,59,67,62,58,98,87,60,30.03,29.88,9,4,18,0.00
2013-8-2,68,64,61,67,63,60,99,97,94,29.89,29.73,10,3,18,0.37
2013-8-3,72,63,59,64,61,58,99,93,75,29.80,29.70,7,2,16,0.02
2013-8-4,73,63,57,63,56,-100,98,84,68,29.76,29.70,8,2,15,0.00
2013-8-5,72,63,56,58,55,50,95,76,54,29.98,29.76,10,3,17,0.00
2013-8-6,74,63,48,58,53,47,99,71,53,30.13,29.98,9,3,17,0.00
2013-8-7,73,64,52,61,56,49,98,79,45,30.18,30.12,8,2,14,0.00
2013-8-8,67,64,61,66,62,59,97,95,91,30.13,30.01,12,4,22,0.30
2013-8-9,69,66,62,68,66,61,99,97,95,30.02,29.67,15,9,29,0.56
2013-8-10,77,67,55,70,60,49,99,79,47,29.94,29.67,11,4,17,0.24
2013-8-11,71,64,54,59,56,51,91,76,59,30.00,29.93,8,4,18,0.00
2013-8-12,75,65,59,62,60,57,94,83,57,29.97,29.88,11,5,19,0.00
2013-8-13,70,64,60,67,61,-100,98,92,85,29.89,29.68,9,3,16,0.00
2013-8-14,69,62,59,65,56,-100,99,89,67,29.81,29.58,10,4,20,0.00
2013-8-15,69,56,55,59,40,-100,91,75,62,30.05,29.81,8,5,17,0.00
2013-8-16,74,63,56,62,55,-100,97,81,55,30.15,30.04,8,4,16,0.00
2013-8-17,76,64,54,62,57,53,98,81,49,30.24,30.15,7,3,11,0.00
2013-8-18,74,64,58,62,58,-100,95,84,60,30.24,30.01,8,4,15,0.00
2013-8-19,71,62,58,62,50,-100,97,86,73,30.01,29.84,11,4,24,0.00
2013-8-20,79,68,63,67,61,-100,94,81,62,30.04,29.90,8,3,16,0.00
2013-8-21,79,68,61,69,63,59,97,84,63,30.09,29.96,8,2,14,0.00
2013-8-22,75,68,63,67,64,61,97,88,75,29.96,29.72,12,6,19,0.00
2013-8-23,74,67,60,64,59,52,98,78,50,30.08,29.72,15,4,21,0.01
2013-8-24,76,61,45,58,53,45,100,77,46,30.27,30.09,6,1,11,0.01
2013-8-25,75,62,48,62,52,-100,100,76,49,30.32,30.14,8,2,15,0.00
2013-8-26,69,64,61,64,59,-100,96,88,80,30.14,29.83,9,4,20,0.04
2013-8-27,80,68,60,68,64,59,98,88,66,29.85,29.81,5,1,8,0.01
2013-8-28,73,65,59,65,61,57,96,88,75,29.97,29.86,5,2,15,0.02
2013-8-29,66,62,57,62,58,54,98,89,75,30.08,29.96,11,4,16,0.01
2013-8-30,69,61,53,62,57,52,96,87,66,29.99,29.75,10,5,19,0.00
2013-8-31,73,66,62,68,64,61,98,94,81,29.81,29.74,6,3,14,0.35
2013-9-1,76,66,62,72,64,-100,99,94,83,29.91,29.74,8,3,17,0.16
2013-9-2,67,60,57,67,59,-100,99,98,98,29.93,29.72,14,7,29,0.64
2013-9-3,71,66,62,70,66,62,100,98,94,29.74,29.67,11,4,19,0.38
2013-9-4,72,64,58,64,61,57,99,90,72,29.85,29.69,11,4,18,0.03
2013-9-5,66,59,54,59,54,45,97,85,53,30.10,29.83,11,4,15,0.12
2013-9-6,63,55,44,53,48,42,97,77,56,30.18,30.02,9,4,17,0.02
2013-9-7,65,60,57,59,56,53,94,87,77,30.03,29.76,11,6,24,0.00
2013-9-8,65,58,51,60,52,-100,98,86,67,30.02,29.67,7,1,14,0.65
2013-9-9,60,56,48,55,47,42,92,74,56,30.17,30.01,10,5,21,0.07
2013-9-10,64,60,56,61,58,55,98,93,87,30.11,30.03,9,2,17,0.00
2013-9-11,73,65,60,69,64,59,99,96,87,30.05,29.88,10,2,16,0.03
2013-9-12,72,65,61,69,64,60,99,97,89,29.98,29.65,11,5,25,0.35
2013-9-13,65,62,59,65,62,58,100,99,98,29.66,29.55,14,2,24,0.34
2013-9-14,68,60,56,61,58,54,98,91,78,29.97,29.63,10,3,15,0.04
2013-9-15,62,55,48,56,51,-100,98,89,78,30.09,29.97,10,4,19,0.00
2013-9-16,63,57,49,56,53,40,98,87,69,30.20,29.93,20,6,29,0.02
2013-9-17,62,51,44,50,43,38,95,76,55,30.35,30.20,21,8,28,0.01
2013-9-18,60,48,44,52,46,43,98,95,75,30.27,30.06,7,1,15,0.01
2013-9-19,69,59,49,55,52,47,97,79,56,30.09,29.99,9,3,17,0.01
2013-9-20,73,60,51,58,54,48,97,80,55,30.08,30.00,6,2,12,0.00
2013-9-21,64,60,56,60,58,55,98,93,84,30.03,29.78,13,8,24,0.00
2013-9-22,66,61,55,64,58,-100,98,94,88,29.79,29.59,15,6,30,0.43
2013-9-23,58,53,47,52,46,42,93,79,68,29.88,29.68,22,4,30,0.03
2013-9-24,52,51,48,47,44,42,84,77,72,29.87,29.78,19,10,28,0.02
2013-9-25,58,54,50,51,48,46,89,81,70,29.93,29.80,17,10,22,0.01
2013-9-26,62,56,51,52,50,48,89,82,68,30.08,29.92,16,9,20,0.00
2013-9-27,72,59,52,57,53,50,95,81,53,30.21,30.08,11,4,16,0.00
2013-9-28,69,56,46,56,52,45,98,86,61,30.32,30.21,6,2,9,0.01
2013-9-29,62,51,43,56,48,-100,99,92,81,30.25,30.10,5,1,9,0.02
2013-9-30,65,54,46,56,51,45,99,89,62,30.12,29.95,7,1,10,0.01
2013-10-1,56,55,51,55,54,50,96,95,93,29.94,29.81,6,2,9,0.00
2013-10-2,68,61,52,60,56,51,97,85,61,29.84,29.70,10,4,18,0.01
2013-10-3,71,62,52,54,51,47,86,68,48,30.02,29.83,10,3,20,0.01
2013-10-4,68,57,47,54,50,45,99,79,54,30.06,29.99,8,2,14,0.00
2013-10-5,60,54,48,51,47,44,96,76,58,30.13,30.06,4,1,10,0.00
2013-10-6,56,51,45,48,43,35,97,74,49,30.27,30.12,8,2,16,0.03
2013-10-7,66,58,49,62,56,47,98,94,85,30.22,29.79,18,10,35,0.12
2013-10-8,63,56,48,62,48,42,98,76,59,30.36,29.79,20,9,30,0.21
2013-10-9,60,50,36,48,42,35,99,77,48,30.46,30.35,8,2,12,0.01
2013-10-10,61,50,39,54,47,39,100,91,63,30.35,30.18,5,1,12,0.01
2013-10-11,68,54,44,54,50,43,99,89,60,30.18,30.10,5,1,13,0.00
2013-10-12,56,52,45,53,48,43,95,88,77,30.40,30.17,9,5,20,0.00
2013-10-13,58,50,43,49,42,-100,95,80,55,30.46,30.38,7,2,13,0.00
2013-10-14,57,51,43,51,47,42,97,86,72,30.38,30.23,8,4,17,0.00
2013-10-15,65,56,52,56,52,50,99,86,68,30.26,30.20,7,2,10,0.00
2013-10-16,56,54,52,55,53,51,99,96,92,30.20,29.87,7,2,16,0.02
2013-10-17,57,53,46,56,53,46,99,99,97,29.87,29.72,6,1,13,0.01
2013-10-18,64,57,51,58,54,49,99,89,66,29.78,29.56,13,5,24,0.10
2013-10-19,59,54,48,51,48,41,90,81,65,29.91,29.76,9,3,16,0.03
2013-10-20,60,54,52,54,41,-100,98,70,42,29.90,29.65,12,5,22,0.03
2013-10-21,57,52,47,49,43,38,89,72,57,30.04,29.90,10,5,18,0.01
2013-10-22,60,55,51,56,52,44,96,89,80,29.98,29.66,14,7,24,0.02
2013-10-23,53,47,38,45,39,34,96,75,50,29.74,29.54,13,2,19,0.02
2013-10-24,50,46,43,42,36,30,94,67,49,29.77,29.54,16,6,27,0.02
2013-10-25,52,46,41,37,35,32,72,64,54,30.05,29.76,14,3,27,0.00
2013-10-26,51,46,39,42,35,28,74,67,55,30.09,29.85,14,5,28,0.00
2013-10-27,54,46,41,45,39,-100,97,78,66,29.95,29.75,10,2,24,0.32
2013-10-28,52,45,39,44,35,-100,81,71,55,30.29,29.95,26,7,38,0.01
2013-10-29,49,38,27,31,29,24,90,69,44,30.42,30.29,17,3,25,0.00
2013-10-30,48,40,28,35,32,27,98,73,53,30.33,30.14,4,0,6,0.00
2013-10-31,57,44,29,56,41,28,98,91,67,30.23,29.80,15,5,31,0.24
2013-11-1,61,58,55,60,56,53,98,95,89,29.79,29.35,19,10,43,1.05
2013-11-2,59,53,46,54,49,45,97,88,72,29.71,29.51,9,3,22,0.04
2013-11-3,50,40,35,45,29,-100,96,68,47,30.36,29.70,23,13,31,0.12
2013-11-4,42,36,31,27,24,22,76,63,46,30.68,30.36,22,12,27,0.02
2013-11-5,46,42,26,39,35,25,97,76,64,30.70,30.49,7,3,17,0.00
2013-11-6,52,49,45,50,44,39,92,83,76,30.49,29.99,13,7,24,0.00
2013-11-7,57,52,44,56,50,36,98,93,72,29.99,29.60,18,10,29,0.16
2013-11-8,44,41,37,36,30,25,75,62,52,29.91,29.70,22,11,31,0.01
2013-11-9,44,39,31,29,25,-100,78,60,48,30.08,29.91,16,8,29,0.00
2013-11-10,49,42,35,44,39,29,95,87,74,30.06,29.67,11,3,23,0.06
2013-11-11,49,43,39,42,36,31,90,75,62,29.95,29.68,18,7,27,0.01
2013-11-12,49,37,31,39,28,20,90,70,60,30.04,29.80,19,6,34,0.01
2013-11-13,34,31,28,24,20,16,78,63,49,30.16,30.04,22,8,37,0.01
2013-11-14,47,40,32,34,30,20,94,69,54,30.09,29.95,11,5,20,0.00
2013-11-15,51,44,35,42,38,32,96,80,64,30.16,30.05,8,2,18,0.00
2013-11-16,50,43,39,46,40,-100,97,92,84,30.33,30.16,6,1,11,0.01
2013-11-17,53,46,34,50,44,34,99,94,78,30.35,29.98,7,1,15,0.04
2013-11-18,58,52,43,57,51,42,99,97,87,29.96,29.47,9,3,19,0.54
2013-11-19,45,39,35,45,28,22,99,66,53,30.13,29.53,24,12,41,0.01
2013-11-20,39,34,30,26,22,18,73,62,45,30.59,30.13,27,8,39,0.00
2013-11-21,46,39,31,34,26,18,78,62,33,30.60,30.34,13,5,16,0.00
2013-11-22,43,40,34,36,30,24,88,69,51,30.32,29.77,10,1,13,0.00
2013-11-23,42,37,32,41,26,-100,96,67,46,29.75,29.62,19,11,36,0.05
2013-11-24,32,25,22,22,14,10,73,62,53,29.91,29.59,31,17,48,0.01
2013-11-25,35,26,20,23,10,-100,72,55,38,30.30,29.91,22,11,37,0.01
2013-11-26,40,36,32,36,31,25,94,81,63,30.31,30.17,12,5,25,0.01
2013-11-27,56,51,39,55,50,37,98,97,91,30.18,29.11,22,10,53,1.36
2013-11-28,43,32,23,42,24,12,96,71,48,30.35,29.22,21,8,34,0.19
2013-11-29,27,24,21,17,14,12,82,66,56,30.71,30.35,18,9,25,0.01
2013-11-30,36,25,19,27,16,-100,85,72,52,30.79,30.45,14,5,19,0.00
2013-12-1,44,40,34,40,36,27,97,83,69,30.44,30.06,13,6,23,0.15
2013-12-2,45,43,39,44,42,38,98,96,92,30.07,29.90,14,6,28,0.46
2013-12-3,42,40,38,41,39,35,99,97,88,29.91,29.79,23,8,31,0.10
2013-12-4,42,38,30,35,32,26,88,79,71,30.20,29.80,27,8,36,0.00
2013-12-5,50,40,26,49,37,25,98,92,84,30.27,29.92,12,4,22,0.01
2013-12-6,51,45,40,51,41,30,99,88,66,30.10,29.84,12,6,22,0.01
2013-12-7,39,34,27,32,21,-100,94,63,47,30.36,30.04,22,11,32,0.02
2013-12-8,28,26,25,17,14,11,69,58,52,30.58,30.37,19,9,35,0.01
2013-12-9,40,31,24,39,25,10,98,80,55,30.54,29.78,12,5,24,0.08
2013-12-10,37,33,27,36,28,16,98,86,60,29.85,29.69,24,7,36,0.09
2013-12-11,31,27,24,21,16,12,80,62,49,30.09,29.85,19,6,37,0.01
2013-12-12,24,18,14,16,7,0,71,61,51,30.21,29.97,19,7,34,0.00
2013-12-13,26,20,10,14,9,3,75,62,46,30.35,29.87,24,9,34,0.00
2013-12-14,18,10,5,15,2,-100,91,71,55,30.61,30.35,21,6,29,0.00
2013-12-15,32,23,16,32,22,14,98,95,91,30.38,29.26,28,10,42,0.00
2013-12-16,25,21,10,22,15,3,92,78,58,30.17,29.63,19,6,31,0.00
2013-12-17,23,14,2,22,10,-2,96,86,76,30.29,30.01,15,3,22,0.00
2013-12-18,28,24,20,27,22,19,97,93,83,30.01,29.79,18,5,25,0.00
2013-12-19,36,31,19,31,27,17,94,85,77,30.07,29.90,8,3,17,0.02
2013-12-20,43,37,30,42,35,29,97,91,81,30.13,29.90,6,1,10,0.59
2013-12-21,41,35,34,40,34,-100,99,97,97,29.95,29.82,7,1,13,0.23
2013-12-22,34,32,31,34,29,-100,98,96,98,30.07,29.85,8,3,18,0.40
2013-12-23,34,32,30,34,30,-100,99,97,98,30.09,29.95,3,0,7,0.01
2013-12-24,33,24,18,32,21,13,97,87,80,30.12,30.04,20,12,32,0.01
2013-12-25,20,16,9,15,11,7,94,83,77,30.55,30.11,28,10,38,0.00
2013-12-26,37,28,11,35,26,10,97,92,80,30.53,30.03,11,2,21,0.00
2013-12-27,33,29,24,27,24,21,94,83,74,30.18,30.06,13,4,22,0.01
2013-12-28,39,33,22,35,28,-100,95,84,78,30.16,29.92,15,5,27,0.01
2013-12-29,44,36,29,40,35,28,98,94,85,30.03,29.44,7,2,17,0.59
2013-12-30,34,25,11,34,22,6,98,89,65,30.14,29.41,22,7,33,0.59
2013-12-31,14,11,6,11,6,0,90,80,70,30.17,30.03,14,5,20,0.00
2014-1-1,23,18,9,14,8,-100,93,68,54,30.40,30.08,14,6,29,0.00
2014-1-2,8,2,0,2,-2,-5,89,85,74,30.46,29.97,19,9,27,0.00